Home > Weather > Jacksonville > Past weeks

Flag for USA Past Weather in Jacksonville, Florida, USA — Yesterday and Last 2 Weeks

Now
86 °F

Passing clouds.


Feels Like: 92 °F
Forecast: 75 / 93 °F
Wind: 12 mph from Southeast

Location: Jacksonville Naval Air Station

Current Time: Jul 24, 2016 at 10:34:21 PM

Latest Report: Jul 24, 2016 at 9:53 PM


Visibility: 10 mi

Pressure: 30.03 "Hg

Humidity: 61%

Dew Point: 71 °F

Location of JacksonvilleLocation

Past Weather in Jacksonville — Graph

°F

Jacksonville Temperature Yesterday

Maximum temperature yesterday: 94 °F (at 2:53 PM)
Minimum temperature yesterday: 78 °F (at 6:53 AM)
Average temperature yesterday: 86 °F

High & Low Weather Summary for the Past Weeks

 TemperatureHumidityPressure
High100 °F (Jul 10, 4:53 PM)88% (Jul 13, 2:53 AM)30.25 "Hg (Jul 13, 2:53 AM)
Low75 °F (Jul 12, 11:53 PM)26% (Jul 10, 4:53 PM)29.96 "Hg (Jul 23, 5:53 PM)
Average86 °F63%30.09 "Hg
* Reported Jul 9 8:53 PM — Jul 24 8:53 PM, Jacksonville, Weather by CustomWeather, © 2016

Note: Actual official high and low records may vary slightly from our data, if they occured in-between our weather recording intervals... More about our weather records

Advertising

Jacksonville Weather History for the Previous 24 Hours

Scroll right to see more
 ConditionsComfort  
Time TempWeatherWind HumidityBarometerVisibility
8:53 PM
Sun, Jul 24
87 °FPassing clouds.12 mph57%30.02 "Hg10 mi
7:53 PM90 °FPassing clouds.17 mph48%30.01 "Hg10 mi
6:53 PM92 °FPassing clouds.17 mph44%30.00 "Hg10 mi
5:53 PM95 °FPassing clouds.16 mph40%29.99 "Hg10 mi
4:53 PM96 °FScattered clouds.15 mph37%29.98 "Hg10 mi
3:53 PM96 °FScattered clouds.9 mph38%30.00 "Hg10 mi
2:53 PM94 °FScattered clouds.6 mph41%30.01 "Hg10 mi
1:53 PM93 °FScattered clouds.7 mph42%30.03 "Hg10 mi
12:53 PM93 °FScattered clouds.3 mph40%30.04 "Hg10 mi
11:53 AM90 °FScattered clouds.6 mph56%30.05 "Hg10 mi
10:53 AM86 °FScattered clouds.6 mph65%30.06 "Hg10 mi
9:53 AM85 °FScattered clouds.No wind65%30.05 "Hg10 mi
8:53 AM82 °FScattered clouds.3 mph70%30.05 "Hg10 mi
7:53 AM80 °FScattered clouds.5 mph74%30.04 "Hg10 mi
6:53 AM79 °FPassing clouds.6 mph77%30.03 "Hg10 mi
5:53 AM80 °FPassing clouds.7 mph74%30.01 "Hg10 mi
4:53 AM81 °FPassing clouds.6 mph72%30.00 "Hg10 mi
3:53 AM82 °FPassing clouds.3 mph72%30.00 "Hg10 mi
2:53 AM82 °FPassing clouds.7 mph74%30.01 "Hg10 mi
1:53 AM84 °FPassing clouds.8 mph70%30.02 "Hg10 mi
12:53 AM85 °FPassing clouds.12 mph68%30.03 "Hg10 mi
11:53 PM
Sat, Jul 23
85 °FPassing clouds.15 mph68%30.03 "Hg10 mi
10:53 PM86 °FPassing clouds.10 mph63%30.03 "Hg10 mi
Weather by CustomWeather, © 2016

See weather overviewHow to use our weather pages